Tracking 30696 objects as of 15-Jun-2025
HD Live streaming from Space Station
objects crossing your sky now

STARLINK-30154

Track STARLINK-30154 now!
10-day predictions
STARLINK-30154 is classified as:


NORAD ID: 57495
Int'l Code: 2023-113A
Perigee: 565.5 km
Apogee: 566.9 km
Inclination: 43.0 °
Period: 95.8 minutes
Semi major axis: 6937 km
RCS: Unknown
Launch date: August 7, 2023
Source: United States (US)
Launch site: AIR FORCE EASTERN TEST RANGE (AFETR)
Your satellite tracking list
Your tracking list is empty




NASA's NSSDC Master Catalog

Two Line Element Set (TLE):
1 57495U 23113A   25165.90159886 -.00000630  00000-0 -31574-4 0  9990
2 57495  43.0027  32.7814 0000965 275.8234  84.2498 15.02536040103212
Source of the keplerian elements: AFSPC